DW9615 Home Hill AU current weather conditions

sailwx.info

Wind from 062 at 1 knots gusting 10

Air temperature 23.3° C
Dewpoint 13.5° C

Last reported at 2014-Sep-01 06:46 UTC.
Time now 2014-Sep-01 07:59 UTC

Location: S 19°40' E 147°25'.
View on Google Maps.

See reports from other nearby stations

  
Tides and Currents Weather Stations Pressure Air Temp Water Temp Dewpoint Dewpoint Depression Visibility Wind Speed Wind Dir Waves Ship Positions
date/time (UTC)wind fromknots sea level pressurealtimeterstation pressurevisibilityair tempwater tempwave heightnotes
2014-Sep-01 06:46 062 1 gusting 10 23.3
2014-Sep-01 06:31 080 3 gusting 12 23.3
2014-Sep-01 06:16 063 2 gusting 9 23.9
2014-Sep-01 06:01 066 5 gusting 11 23.9
2014-Sep-01 05:46 098 4 gusting 10 24.4
2014-Sep-01 05:31 050 4 gusting 10 24.4
2014-Sep-01 05:16 064 3 gusting 9 24.4
2014-Sep-01 05:01 099 5 gusting 7 25.0
2014-Sep-01 04:46 101 4 gusting 10 24.4
2014-Sep-01 04:31 086 3 gusting 9 24.4
2014-Sep-01 04:16 062 3 gusting 8 24.4
2014-Sep-01 04:01 098 6 gusting 11 24.4
2014-Sep-01 03:46 073 3 gusting 10 24.4
2014-Sep-01 03:31 072 5 gusting 9 25.0
2014-Sep-01 03:16 045 4 gusting 10 25.0
2014-Sep-01 03:01 163 4 gusting 8 25.0
2014-Sep-01 02:46 289 1 gusting 7 25.0
2014-Sep-01 02:31 072 3 gusting 8 25.0
2014-Sep-01 02:16 066 4 gusting 8 25.0
2014-Sep-01 02:01 064 3 gusting 7 24.4
2014-Sep-01 01:46 102 6 gusting 10 25.0
2014-Sep-01 01:31 088 1 gusting 8 24.4
2014-Sep-01 01:16 035 2 gusting 9 24.4
2014-Sep-01 01:01 104 24.4
2014-Sep-01 00:46 107 1 gusting 6 24.4
2014-Sep-01 00:30 072 0 gusting 6 23.9
2014-Sep-01 00:15 028 1 gusting 7 23.3
2014-Sep-01 00:00 070 23.3
2014-Aug-31 23:45 138 1 gusting 6 23.3
2014-Aug-31 23:30 117 1 gusting 5 22.8
2014-Aug-31 23:16 181 0 gusting 5 22.2
2014-Aug-31 23:00 193 0 gusting 3 21.7
2014-Aug-31 22:45 052 1 gusting 3 20.6
2014-Aug-31 22:30 132 0 gusting 4 20.0
2014-Aug-31 22:15 149 0 gusting 2 18.9
2014-Aug-31 22:00 183 17.2
2014-Aug-31 21:45 204 15.6
2014-Aug-31 21:30 164 14.4
2014-Aug-31 21:15 129 13.3
2014-Aug-31 21:00 268 12.2
2014-Aug-31 20:45 268 11.7
2014-Aug-31 20:30 269 11.1
2014-Aug-31 20:15 268 10.6
2014-Aug-31 20:00 269 10.6
2014-Aug-31 19:44 269 10.6
2014-Aug-31 19:29 269 10.6
2014-Aug-31 19:14 270 10.6
2014-Aug-31 18:59 268 10.6
2014-Aug-31 18:44 268 11.1
2014-Aug-31 18:29 268 10.6
2014-Aug-31 18:14 268 11.1
2014-Aug-31 17:59 268 11.1
2014-Aug-31 17:44 268 11.1
2014-Aug-31 17:29 268 11.7
2014-Aug-31 17:14 268 11.7
2014-Aug-31 16:59 270 12.2
2014-Aug-31 16:44 270 12.2
2014-Aug-31 16:29 270 12.2
2014-Aug-31 16:14 270 11.7
2014-Aug-31 15:59 270 12.2
2014-Aug-31 15:44 270 12.2
2014-Aug-31 15:29 259 12.2
2014-Aug-31 15:14 297 12.2
2014-Aug-31 14:59 297 12.8
2014-Aug-31 14:44 282 12.8
2014-Aug-31 14:29 282 12.8
2014-Aug-31 14:14 272 12.8
2014-Aug-31 13:59 272 12.8
2014-Aug-31 13:44 273 12.8
2014-Aug-31 13:29 271 13.3
2014-Aug-31 13:14 273 13.3
2014-Aug-31 12:59 079 13.9
2014-Aug-31 12:44 079 15.6
2014-Aug-31 12:29 079 17.2
2014-Aug-31 12:14 064 0 gusting 4 17.8
2014-Aug-31 11:59 076 1 gusting 3 16.7
2014-Aug-31 11:44 074 15.0
2014-Aug-31 11:29 067 15.0
2014-Aug-31 11:14 067 15.6
2014-Aug-31 10:59 067 15.6
2014-Aug-31 10:44 067 16.1
2014-Aug-31 10:29 067 16.7
2014-Aug-31 10:14 067 17.2
2014-Aug-31 09:59 067 17.8
2014-Aug-31 09:44 065 18.3
2014-Aug-31 09:29 066 18.9
2014-Aug-31 09:14 073 1 gusting 5 19.4
2014-Aug-31 08:59 078 1 gusting 4 19.4
2014-Aug-31 08:44 069 2 gusting 4 20.0
2014-Aug-31 08:29 066 1 gusting 4 20.0
2014-Aug-31 08:14 136 2 gusting 6 20.6
2014-Aug-31 07:59 079 2 gusting 8 21.1
2014-Aug-31 07:44 107 2 gusting 7 21.7
2014-Aug-31 07:29 083 3 gusting 7 22.2
2014-Aug-31 07:14 071 6 gusting 11 22.2
2014-Aug-31 06:58 069 5 gusting 10 22.8
2014-Aug-31 06:43 066 6 gusting 12 22.8
2014-Aug-31 06:28 101 5 gusting 11 23.3
2014-Aug-31 06:13 086 6 gusting 13 23.3
2014-Aug-31 05:58 097 5 gusting 13 23.9
2014-Aug-31 05:43 066 6 gusting 12 23.9
2014-Aug-31 05:28 084 6 gusting 17 23.9
2014-Aug-31 05:13 047 5 gusting 12 24.4
2014-Aug-31 04:58 107 5 gusting 9 25.6
2014-Aug-31 04:43 059 5 gusting 11 25.6
2014-Aug-31 04:28 109 3 gusting 10 25.6
2014-Aug-31 04:13 094 4 gusting 9 25.6
2014-Aug-31 03:58 083 4 gusting 11 25.6
2014-Aug-31 03:43 098 4 gusting 9 25.6
2014-Aug-31 03:28 111 3 gusting 7 25.6
2014-Aug-31 03:13 084 5 gusting 10 25.0
2014-Aug-31 02:58 101 5 gusting 11 25.0
2014-Aug-31 02:43 076 3 gusting 7 25.0
2014-Aug-31 02:28 090 3 gusting 7 25.6
2014-Aug-31 02:13 144 2 gusting 9 25.0
2014-Aug-31 01:58 131 3 gusting 11 25.0
2014-Aug-31 01:43 105 5 gusting 11 25.0
2014-Aug-31 01:28 132 6 gusting 13 24.4
2014-Aug-31 01:13 095 3 gusting 10 24.4
2014-Aug-31 00:58 169 1 gusting 9 24.4
2014-Aug-31 00:43 057 4 gusting 7 23.9
2014-Aug-31 00:28 091 2 gusting 6 23.9
2014-Aug-31 00:13 117 2 gusting 5 23.3
2014-Aug-30 23:58 117 0 gusting 6 22.8
2014-Aug-30 23:43 112 0 gusting 6 22.8
2014-Aug-30 23:27 344 22.2
2014-Aug-30 23:12 170 1 gusting 4 22.2
2014-Aug-30 22:57 082 0 gusting 3 21.7
2014-Aug-30 22:42 134 0 gusting 3 20.0
2014-Aug-30 22:27 190 0 gusting 3 18.9
2014-Aug-30 22:12 140 0 gusting 3 17.8
2014-Aug-30 21:57 162 0 gusting 1 16.7
2014-Aug-30 21:42 190 15.6
2014-Aug-30 21:27 190 14.4
2014-Aug-30 21:12 275 13.3
2014-Aug-30 20:57 275 12.8
2014-Aug-30 20:42 276 11.7
2014-Aug-30 20:27 275 11.7
2014-Aug-30 20:12 275 12.2
2014-Aug-30 19:57 275 12.2
2014-Aug-30 19:42 276 12.2
2014-Aug-30 19:27 275 12.2
2014-Aug-30 19:12 275 12.2
2014-Aug-30 18:57 275 12.2
2014-Aug-30 18:42 275 12.2
2014-Aug-30 18:27 275 12.8
2014-Aug-30 18:12 274 12.8
2014-Aug-30 17:57 274 12.8
2014-Aug-30 17:41 274 12.8
2014-Aug-30 17:26 264 12.8
2014-Aug-30 17:11 264 12.8
2014-Aug-30 16:56 264 12.8
2014-Aug-30 16:41 063 12.8
2014-Aug-30 16:26 066 12.8
2014-Aug-30 16:11 066 12.8
2014-Aug-30 15:56 065 12.8
2014-Aug-30 15:41 066 13.3
2014-Aug-30 15:26 066 13.3
2014-Aug-30 15:11 066 13.3
2014-Aug-30 14:56 066 13.3
2014-Aug-30 14:41 066 13.3
2014-Aug-30 14:26 066 13.3
2014-Aug-30 14:11 066 13.3
2014-Aug-30 13:56 066 13.9
2014-Aug-30 13:41 065 13.9
2014-Aug-30 13:26 066 13.9
2014-Aug-30 13:11 066 14.4
2014-Aug-30 12:56 067 14.4
2014-Aug-30 12:41 066 15.0
2014-Aug-30 12:26 066 15.0
2014-Aug-30 12:11 066 15.0
2014-Aug-30 11:56 066 15.6
2014-Aug-30 11:41 065 15.6
2014-Aug-30 11:26 066 15.6
2014-Aug-30 11:11 066 16.1
2014-Aug-30 10:56 066 17.2
2014-Aug-30 10:41 066 17.8
2014-Aug-30 10:26 066 18.9
2014-Aug-30 10:11 069 18.9
2014-Aug-30 09:56 078 18.9
2014-Aug-30 09:41 049 19.4
2014-Aug-30 09:26 080 0 gusting 2 19.4
2014-Aug-30 09:11 097 1 gusting 2 19.4
2014-Aug-30 08:56 081 0 gusting 3 20.0
2014-Aug-30 08:41 072 0 gusting 2 20.0
2014-Aug-30 08:26 072 1 gusting 4 20.6
2014-Aug-30 08:11 079 0 gusting 4 20.6
2014-Aug-30 07:56 170 3 gusting 6 21.1
2014-Aug-30 07:41 064 3 gusting 6 21.7
2014-Aug-30 07:27 104 4 gusting 10 22.2
2014-Aug-30 07:11 111 4 gusting 13 22.8